COSMOS 1428

导读

COSMOS 1428(宇宙1428)是苏联(CIS)于1983年1月12日发射入轨的宇宙系列卫星。该系列是苏联大规模开展的综合性卫星工程,涵盖军事侦察、空间科学实验、技术试验等多元任务。作为冷战时期苏联航天活动的产物,它延续了宇宙卫星系列的任务传统,承担特定空间探测或技术验证工作,印证了苏联在上世纪80年代稳定的航天发射能力,是该系列卫星发展历程中的一员。

基本信息
目录编号:
13757
目录名称:
COSMOS 1428
国际标识:
1983-001A
轨道中心:
EARTH
卫星名称:
COSMOS 1428
卫星全名:
--
卫星状态:
在轨 (已飞行15948 天)
发射日期:
1983-01-12 UTC
国别 :
俄罗斯(独联体) (CIS)
星等 :
--
轨道信息
数据来源 国际轨道数据 AOE轨道数据
星历时间 2026-09-11T02:05:17+0800
11小时前
查看轨道信息
2026-09-06T03:00:00+0800
5天前
查看轨道信息
半长轴 7352.346km 7352.343km
偏心率 0.0034681 0.0034922
轨道倾角 82.916° 82.916°
近地点辐角 5.835° 19.864°
升交点赤经 337.858° 341.561°
平近点角 106.638° 347.174°
近地点 948.71km 948.53km
远地点 999.708km 999.882km
周期 104.568分钟 104.568分钟
每日圈数 13.770949 13.770959
详细信息
使用方式:
暂无
2D轨道图
3D轨道图
轨道高度分析图
轨道倾角分析图
轨道综合分析图
查看轨道综合分析图
与全量物体交会距离演化趋势
与全量物体交会风险概率演化趋势